{"data":{"norad_id":67306,"intl_designator":"2026-002B","name":"STARLINK-36488","alt_names":[],"object_type":"PAYLOAD","status":"ACTIVE","operator":null,"country":"US","launch_date":"2026-01-04","launch_site_code":"AFETR","launch_vehicle":null,"mission":null,"orbit_class":"UNKNOWN","rcs_meters":null,"size_class":null,"mass_kg":null,"dimensions":null,"purposes":["comms"],"wikipedia_slug":null,"has_3d_model":false,"image_url":null,"decayed_at":null,"tle_current":{"epoch":"2026-09-19T11:34:22.380672Z","epoch_age_seconds":163295,"freshness":"FRESH","line1":"1 67306U 26002B   26262.48220348  .00013382  00000+0  49468-3 0  9991","line2":"2 67306  43.0019 311.1226 0001505 271.2311  88.8368 15.27596953 40710","mean_motion":15.27596953,"eccentricity":0.0001505,"inclination_deg":43.0019,"raan_deg":311.1226,"arg_perigee_deg":271.2311,"mean_anomaly_deg":88.8368,"bstar":0.00049468,"rev_number":4071,"period_min":94.265702557997,"perigee_km":481.96573226068,"apogee_km":484.03093399595,"semimajor_km":6861.1353331283,"source":"CELESTRAK","updated_at":"2026-09-20T09:00:43.502237Z"}}}